Time,TemperatureF,DewpointF,PressureIn,WindDirection,WindDirectionDegrees,WindSpeedMPH,WindSpeedGustMPH,Humidity,HourlyPrecipIn,Conditions,Clouds,dailyrainin,SolarRadiationWatts/m^2,SoftwareType,DateUTC
2013-04-14 00:03:00,57.0,53.0,-100.00,North,10,1.0,1.0,87,0.00,,,0.00,0.000000,,2013-04-14 04:03:00,
2013-04-14 00:23:00,56.0,53.0,-100.00,ENE,60,0.0,2.0,89,0.00,,,0.00,0.000000,,2013-04-14 04:23:00,
2013-04-14 00:33:00,56.0,53.0,-100.00,ENE,60,0.0,2.0,89,0.00,,,0.00,0.000000,,2013-04-14 04:33:00,
2013-04-14 00:43:00,56.0,53.0,-100.00,ENE,60,0.0,2.0,89,0.00,,,0.00,0.000000,,2013-04-14 04:43:00,
2013-04-14 00:53:00,56.0,53.0,-100.00,ENE,60,0.0,2.0,89,0.00,,,0.00,0.000000,,2013-04-14 04:53:00,
2013-04-14 01:03:00,56.0,53.0,-100.00,ENE,60,0.0,2.0,89,0.00,,,0.00,0.000000,,2013-04-14 05:03:00,
2013-04-14 01:23:00,55.0,53.0,-100.00,North,352,0.0,0.0,93,0.00,,,0.00,0.000000,,2013-04-14 05:23:00,
2013-04-14 01:32:00,55.0,53.0,-100.00,North,352,0.0,0.0,93,0.00,,,0.00,0.000000,,2013-04-14 05:32:00,
2013-04-14 01:42:00,55.0,53.0,-100.00,North,352,0.0,0.0,93,0.00,,,0.00,0.000000,,2013-04-14 05:42:00,
2013-04-14 01:53:00,55.0,53.0,-100.00,North,352,0.0,0.0,93,0.00,,,0.00,0.000000,,2013-04-14 05:53:00,
2013-04-14 02:02:00,55.0,53.0,-100.00,North,352,0.0,0.0,93,0.00,,,0.00,0.000000,,2013-04-14 06:02:00,
2013-04-14 02:22:00,54.0,52.0,-100.00,SW,236,0.0,1.0,92,0.00,,,0.00,0.000000,,2013-04-14 06:22:00,
2013-04-14 02:32:00,54.0,52.0,-100.00,SW,236,0.0,1.0,92,0.00,,,0.00,0.000000,,2013-04-14 06:32:00,
2013-04-14 02:42:00,54.0,52.0,-100.00,SW,236,0.0,1.0,92,0.00,,,0.00,0.000000,,2013-04-14 06:42:00,
2013-04-14 02:53:00,54.0,52.0,-100.00,SW,236,0.0,1.0,92,0.00,,,0.00,0.000000,,2013-04-14 06:53:00,
2013-04-14 03:02:00,54.0,52.0,-100.00,SW,236,0.0,1.0,92,0.00,,,0.00,0.000000,,2013-04-14 07:02:00,
2013-04-14 03:23:00,53.0,51.0,-100.00,West,273,0.0,0.0,93,0.00,,,0.00,0.000000,,2013-04-14 07:23:00,
2013-04-14 03:33:00,53.0,51.0,-100.00,West,273,0.0,0.0,93,0.00,,,0.00,0.000000,,2013-04-14 07:33:00,
2013-04-14 03:42:00,53.0,51.0,-100.00,West,273,0.0,0.0,93,0.00,,,0.00,0.000000,,2013-04-14 07:42:00,
2013-04-14 03:52:00,53.0,51.0,-100.00,West,273,0.0,0.0,93,0.00,,,0.00,0.000000,,2013-04-14 07:52:00,
2013-04-14 04:03:00,53.0,51.0,-100.00,West,273,0.0,0.0,93,0.00,,,0.00,0.000000,,2013-04-14 08:03:00,
2013-04-14 04:33:00,54.0,52.0,-100.00,NNE,33,0.0,0.0,94,0.00,,,0.00,0.000000,,2013-04-14 08:33:00,
2013-04-14 04:43:00,54.0,52.0,-100.00,NNE,33,0.0,0.0,94,0.00,,,0.00,0.000000,,2013-04-14 08:43:00,
2013-04-14 04:52:00,54.0,52.0,-100.00,NNE,33,0.0,0.0,94,0.00,,,0.00,0.000000,,2013-04-14 08:52:00,
2013-04-14 05:03:00,54.0,52.0,-100.00,NNE,33,0.0,0.0,94,0.00,,,0.00,0.000000,,2013-04-14 09:03:00,
2013-04-14 05:22:00,55.0,53.0,-100.00,NNW,331,1.0,3.0,94,0.00,,,0.00,0.000000,,2013-04-14 09:22:00,
2013-04-14 05:33:00,55.0,53.0,-100.00,NNW,331,1.0,3.0,94,0.00,,,0.00,0.000000,,2013-04-14 09:33:00,
2013-04-14 05:43:00,55.0,53.0,-100.00,NNW,331,1.0,3.0,94,0.00,,,0.00,0.000000,,2013-04-14 09:43:00,
2013-04-14 05:54:00,55.0,53.0,-100.00,NNW,331,1.0,3.0,94,0.00,,,0.00,0.000000,,2013-04-14 09:54:00,
2013-04-14 06:03:00,55.0,53.0,-100.00,NNW,331,1.0,3.0,94,0.00,,,0.00,0.000000,,2013-04-14 10:03:00,
2013-04-14 06:23:00,55.0,53.0,-100.00,NE,49,0.0,2.0,94,0.00,,,0.00,0.000000,,2013-04-14 10:23:00,
2013-04-14 06:33:00,55.0,53.0,-100.00,NE,49,0.0,2.0,94,0.00,,,0.00,0.000000,,2013-04-14 10:33:00,
2013-04-14 06:43:00,55.0,53.0,-100.00,NE,49,0.0,2.0,94,0.00,,,0.00,0.000000,,2013-04-14 10:43:00,
2013-04-14 06:53:00,55.0,53.0,-100.00,NE,49,0.0,2.0,94,0.00,,,0.00,0.000000,,2013-04-14 10:53:00,
2013-04-14 07:02:00,55.0,53.0,-100.00,NE,49,0.0,2.0,94,0.00,,,0.00,0.000000,,2013-04-14 11:02:00,
2013-04-14 07:23:00,56.0,54.0,-100.00,ESE,107,0.0,0.0,94,0.00,,,0.00,0.000000,,2013-04-14 11:23:00,
2013-04-14 07:33:00,56.0,54.0,-100.00,ESE,107,0.0,0.0,94,0.00,,,0.00,0.000000,,2013-04-14 11:33:00,
2013-04-14 07:42:00,56.0,54.0,-100.00,ESE,107,0.0,0.0,94,0.00,,,0.00,0.000000,,2013-04-14 11:42:00,
2013-04-14 07:53:00,56.0,54.0,-100.00,ESE,107,0.0,0.0,94,0.00,,,0.00,0.000000,,2013-04-14 11:53:00,
2013-04-14 08:02:00,56.0,54.0,-100.00,ESE,107,0.0,0.0,94,0.00,,,0.00,0.000000,,2013-04-14 12:02:00,
2013-04-14 08:22:00,58.0,56.0,-100.00,East,85,2.0,2.0,94,0.00,,,0.00,31.000000,,2013-04-14 12:22:00,
2013-04-14 08:32:00,58.0,56.0,-100.00,East,85,2.0,2.0,94,0.00,,,0.00,31.000000,,2013-04-14 12:32:00,
2013-04-14 08:42:00,58.0,56.0,-100.00,East,85,2.0,2.0,94,0.00,,,0.00,31.000000,,2013-04-14 12:42:00,
2013-04-14 08:52:00,58.0,56.0,-100.00,East,85,2.0,2.0,94,0.00,,,0.00,31.000000,,2013-04-14 12:52:00,
2013-04-14 09:02:00,58.0,56.0,-100.00,East,85,2.0,2.0,94,0.00,,,0.00,31.000000,,2013-04-14 13:02:00,
2013-04-14 09:33:00,62.0,60.0,-100.00,NW,307,3.0,5.0,93,0.00,,,0.00,52.000000,,2013-04-14 13:33:00,
2013-04-14 09:43:00,62.0,60.0,-100.00,NW,307,3.0,5.0,93,0.00,,,0.00,52.000000,,2013-04-14 13:43:00,
2013-04-14 09:52:00,62.0,60.0,-100.00,NW,307,3.0,5.0,93,0.00,,,0.00,52.000000,,2013-04-14 13:52:00,
2013-04-14 10:02:00,62.0,60.0,-100.00,NW,307,3.0,5.0,93,0.00,,,0.00,52.000000,,2013-04-14 14:02:00,
2013-04-14 10:32:00,63.0,60.0,-100.00,NW,309,1.0,4.0,90,0.00,,,0.00,78.000000,,2013-04-14 14:32:00,
2013-04-14 10:42:00,63.0,60.0,-100.00,NW,309,1.0,4.0,90,0.00,,,0.00,78.000000,,2013-04-14 14:42:00,
2013-04-14 10:53:00,63.0,60.0,-100.00,NW,309,1.0,4.0,90,0.00,,,0.00,78.000000,,2013-04-14 14:53:00,
2013-04-14 11:03:00,63.0,60.0,-100.00,NW,309,1.0,4.0,90,0.00,,,0.00,78.000000,,2013-04-14 15:03:00,
2013-04-14 11:04:00,67.0,63.0,-100.00,East,89,4.0,8.0,88,0.00,,,0.00,134.000000,,2013-04-14 15:04:00,
2013-04-14 11:34:00,67.0,63.0,-100.00,East,89,4.0,8.0,88,0.00,,,0.00,134.000000,,2013-04-14 15:34:00,
2013-04-14 11:44:00,67.0,63.0,-100.00,East,89,4.0,8.0,88,0.00,,,0.00,134.000000,,2013-04-14 15:44:00,
2013-04-14 11:53:00,67.0,63.0,-100.00,East,89,4.0,8.0,88,0.00,,,0.00,134.000000,,2013-04-14 15:53:00,
2013-04-14 12:23:00,70.0,62.0,-100.00,East,79,3.0,8.0,77,0.00,,,0.00,135.000000,,2013-04-14 16:23:00,
2013-04-14 12:33:00,70.0,62.0,-100.00,East,79,3.0,8.0,77,0.00,,,0.00,135.000000,,2013-04-14 16:33:00,
2013-04-14 12:43:00,70.0,62.0,-100.00,East,79,3.0,8.0,77,0.00,,,0.00,135.000000,,2013-04-14 16:43:00,
2013-04-14 12:53:00,70.0,62.0,-100.00,East,79,3.0,8.0,77,0.00,,,0.00,135.000000,,2013-04-14 16:53:00,
2013-04-14 13:02:00,70.0,62.0,-100.00,East,79,3.0,8.0,77,0.00,,,0.00,135.000000,,2013-04-14 17:02:00,
2013-04-14 13:23:00,71.0,61.0,-100.00,SE,126,4.0,9.0,70,0.00,,,0.00,166.000000,,2013-04-14 17:23:00,
2013-04-14 13:33:00,71.0,61.0,-100.00,SE,126,4.0,9.0,70,0.00,,,0.00,166.000000,,2013-04-14 17:33:00,
2013-04-14 13:43:00,71.0,61.0,-100.00,SE,126,4.0,9.0,70,0.00,,,0.00,166.000000,,2013-04-14 17:43:00,
2013-04-14 13:53:00,71.0,61.0,-100.00,SE,126,4.0,9.0,70,0.00,,,0.00,166.000000,,2013-04-14 17:53:00,
2013-04-14 14:03:00,71.0,61.0,-100.00,SE,126,4.0,9.0,70,0.00,,,0.00,166.000000,,2013-04-14 18:03:00,
2013-04-14 14:04:00,67.0,62.0,-100.00,SE,144,1.0,5.0,85,0.03,,,0.03,79.000000,,2013-04-14 18:04:00,
2013-04-14 14:22:00,67.0,62.0,-100.00,SE,144,1.0,5.0,85,0.03,,,0.03,79.000000,,2013-04-14 18:22:00,
2013-04-14 14:33:00,67.0,62.0,-100.00,SE,144,1.0,5.0,85,0.03,,,0.03,79.000000,,2013-04-14 18:33:00,
2013-04-14 14:43:00,67.0,62.0,-100.00,SE,144,1.0,5.0,85,0.03,,,0.03,79.000000,,2013-04-14 18:43:00,
2013-04-14 14:54:00,67.0,62.0,-100.00,SE,144,1.0,5.0,85,0.03,,,0.03,79.000000,,2013-04-14 18:54:00,
2013-04-14 15:33:00,67.0,65.0,-100.00,North,353,2.0,4.0,92,0.06,,,0.09,88.000000,,2013-04-14 19:33:00,
2013-04-14 15:43:00,67.0,65.0,-100.00,North,353,2.0,4.0,92,0.06,,,0.09,88.000000,,2013-04-14 19:43:00,
2013-04-14 15:53:00,67.0,65.0,-100.00,North,353,2.0,4.0,92,0.06,,,0.09,88.000000,,2013-04-14 19:53:00,
2013-04-14 16:03:00,67.0,65.0,-100.00,North,353,2.0,4.0,92,0.06,,,0.09,88.000000,,2013-04-14 20:03:00,
2013-04-14 16:33:00,64.0,60.0,-100.00,ESE,103,3.0,7.0,88,0.04,,,0.13,68.000000,,2013-04-14 20:33:00,
2013-04-14 16:43:00,64.0,60.0,-100.00,ESE,103,3.0,7.0,88,0.04,,,0.13,68.000000,,2013-04-14 20:43:00,
2013-04-14 16:53:00,64.0,60.0,-100.00,ESE,103,3.0,7.0,88,0.04,,,0.13,68.000000,,2013-04-14 20:53:00,
2013-04-14 17:02:00,64.0,60.0,-100.00,ESE,103,3.0,7.0,88,0.04,,,0.13,68.000000,,2013-04-14 21:02:00,
2013-04-14 17:33:00,62.0,59.0,-100.00,East,96,4.0,11.0,90,0.13,,,0.26,70.000000,,2013-04-14 21:33:00,
2013-04-14 17:43:00,62.0,59.0,-100.00,East,96,4.0,11.0,90,0.13,,,0.26,70.000000,,2013-04-14 21:43:00,
2013-04-14 17:53:00,62.0,59.0,-100.00,East,96,4.0,11.0,90,0.13,,,0.26,70.000000,,2013-04-14 21:53:00,
2013-04-14 18:03:00,62.0,59.0,-100.00,East,96,4.0,11.0,90,0.13,,,0.26,70.000000,,2013-04-14 22:03:00,
2013-04-14 18:33:00,63.0,59.0,-100.00,ESE,106,3.0,14.0,87,0.00,,,0.26,102.000000,,2013-04-14 22:33:00,
2013-04-14 18:44:00,63.0,59.0,-100.00,ESE,106,3.0,14.0,87,0.00,,,0.26,102.000000,,2013-04-14 22:44:00,
2013-04-14 18:53:00,63.0,59.0,-100.00,ESE,106,3.0,14.0,87,0.00,,,0.26,102.000000,,2013-04-14 22:53:00,
2013-04-14 19:02:00,63.0,59.0,-100.00,ESE,106,3.0,14.0,87,0.00,,,0.26,102.000000,,2013-04-14 23:02:00,
2013-04-14 19:23:00,62.0,58.0,-100.00,East,99,2.0,8.0,88,0.04,,,0.30,19.000000,,2013-04-14 23:23:00,
2013-04-14 19:33:00,62.0,58.0,-100.00,East,99,2.0,8.0,88,0.04,,,0.30,19.000000,,2013-04-14 23:33:00,
2013-04-14 19:43:00,62.0,58.0,-100.00,East,99,2.0,8.0,88,0.04,,,0.30,19.000000,,2013-04-14 23:43:00,
2013-04-14 19:53:00,62.0,58.0,-100.00,East,99,2.0,8.0,88,0.04,,,0.30,19.000000,,2013-04-14 23:53:00,
2013-04-14 20:02:00,62.0,58.0,-100.00,East,99,2.0,8.0,88,0.04,,,0.30,19.000000,,2013-04-15 00:02:00,
2013-04-14 20:23:00,62.0,60.0,-100.00,East,90,3.0,8.0,92,0.03,,,0.33,4.000000,,2013-04-15 00:23:00,
2013-04-14 20:33:00,62.0,60.0,-100.00,East,90,3.0,8.0,92,0.03,,,0.33,4.000000,,2013-04-15 00:33:00,
2013-04-14 20:43:00,62.0,60.0,-100.00,East,90,3.0,8.0,92,0.03,,,0.33,4.000000,,2013-04-15 00:43:00,
2013-04-14 20:53:00,62.0,60.0,-100.00,East,90,3.0,8.0,92,0.03,,,0.33,4.000000,,2013-04-15 00:53:00,
2013-04-14 21:02:00,62.0,60.0,-100.00,East,90,3.0,8.0,92,0.03,,,0.33,4.000000,,2013-04-15 01:02:00,
2013-04-14 21:33:00,62.0,60.0,-100.00,SSW,212,1.0,4.0,94,0.06,,,0.39,0.000000,,2013-04-15 01:33:00,
2013-04-14 21:43:00,62.0,60.0,-100.00,SSW,212,1.0,4.0,94,0.06,,,0.39,0.000000,,2013-04-15 01:43:00,
2013-04-14 21:52:00,62.0,60.0,-100.00,SSW,212,1.0,4.0,94,0.06,,,0.39,0.000000,,2013-04-15 01:52:00,
2013-04-14 22:03:00,62.0,60.0,-100.00,SSW,212,1.0,4.0,94,0.06,,,0.39,0.000000,,2013-04-15 02:03:00,
2013-04-14 22:22:00,64.0,62.0,-100.00,WSW,254,10.0,27.0,94,0.47,,,0.86,0.000000,,2013-04-15 02:22:00,
2013-04-14 22:32:00,64.0,62.0,-100.00,WSW,254,10.0,27.0,94,0.47,,,0.86,0.000000,,2013-04-15 02:32:00,
2013-04-14 22:42:00,64.0,62.0,-100.00,WSW,254,10.0,27.0,94,0.47,,,0.86,0.000000,,2013-04-15 02:42:00,
2013-04-14 22:53:00,64.0,62.0,-100.00,WSW,254,10.0,27.0,94,0.47,,,0.86,0.000000,,2013-04-15 02:53:00,
2013-04-14 23:03:00,64.0,62.0,-100.00,WSW,254,10.0,27.0,94,0.47,,,0.86,0.000000,,2013-04-15 03:03:00,
2013-04-14 23:33:00,62.0,60.0,-100.00,West,267,3.0,10.0,93,0.02,,,0.88,0.000000,,2013-04-15 03:33:00,
2013-04-14 23:43:00,62.0,60.0,-100.00,West,267,3.0,10.0,93,0.02,,,0.88,0.000000,,2013-04-15 03:43:00,
2013-04-14 23:55:00,62.0,60.0,-100.00,West,267,3.0,10.0,93,0.02,,,0.88,0.000000,,2013-04-15 03:55:00,